Regional Weather Roundup
Issued by NWS Cleveland, OH

Home | Current Version | Previous Version | Graphics & Text | Print | Product List | Glossary On
Versions: 1 2 3 4 5 6 7 8 9 10 11 12 13 14 15 16 17 18 19 20 21 22 23 24 25 26 27 28 29 30 31 32 33 34 35 36 37 38 39 40 41 42 43 44 45 46 47 48 49 50
000
ASUS41 KCLE 200010
RWRCLE
OHIO REGIONAL WEATHER ROUNDUP
NATIONAL WEATHER SERVICE CLEVELAND, OH
700 PM EST THU JAN 19 2017

NOTE: "FAIR" INDICATES FEW OR NO CLOUDS BELOW 12,000 FEET WITH NO
SIGNIFICANT WEATHER AND/OR OBSTRUCTIONS TO VISIBILITY.

OHZ001>008-015>018-024>027-034-035-043-044-200100-
   NORTHWEST OHIO

CITY           SKY/WX    TMP DP  RH WIND       PRES   REMARKS
DEFIANCE       PTCLDY    36  34  92 E6        29.93F
FINDLAY        CLOUDY    39  34  82 E6        29.93F
TOLEDO EXPRESS CLOUDY    37  36  96 E3        29.94F
TOLEDO EXEC    PTCLDY    38  36  92 E3        29.96F
LIMA           PTCLDY    39  37  92 E7        29.91F
$$

OHZ009>014-019>023-028>033-038-089-200100-
   NORTHEAST OHIO

CITY           SKY/WX    TMP DP  RH WIND       PRES   REMARKS
CLE-HOPKINS    MOCLDY    40  33  76 CALM      30.00R
CLE-LAKEFRONT  PTCLDY    35  33  92 NE5       29.98R
CUY CO. ARPT   CLOUDY    37  36  93 CALM      29.98R
LORAIN-ELYRIA  CLOUDY    36  32  85 SE3       29.98R
ASHTABULA      CLOUDY    36  34  92 SE5       29.99F
AKRON-CANTON   CLOUDY    38  33  82 S13       29.97S
WOOSTER        CLOUDY    37  34  89 S10       29.97F
MANSFIELD      PTCLDY    36  34  92 SE7       29.95S
YOUNGSTOWN     MOCLDY    37  33  85 SE5       29.98F
$$

OHZ042-051>053-060>062-070>072-077>081-200100-
  SOUTHWEST OHIO

CITY           SKY/WX    TMP DP  RH WIND       PRES   REMARKS
CINC-COVINGTON LGT RAIN  48  42  80 E8        29.85F
CINC-LUNKEN    CLOUDY    50  40  68 E5        29.88F
HAMILTON       MOCLDY    49  41  74 E6        29.88F
DAYTON         CLOUDY    43  39  86 E12       29.89F
WRIGHT-PAT AFB CLOUDY    44  41  88 E7        29.90F
DAYTON GENERAL MOCLDY    46  40  79 E7        29.87F
WILMINGTON     CLOUDY    45  39  79 E10       29.88F
$$

OHZ036-037-039>041-045>050-054>059-063>069-073>076-082>088-200100-
  CENTRAL AND SOUTHEAST OHIO

CITY           SKY/WX    TMP DP  RH WIND       PRES   REMARKS
COLUMBUS       MOCLDY    43  36  76 E9        29.94F
OSU AIRPORT    PTCLDY    40  37  89 E8        29.93F
BOLTON FIELD   CLEAR     41  37  87 E5        29.94F
RICKENBACK AFB   N/A     41  38  87 SE6       29.93F
NEWARK         CLOUDY    41  35  79 SE3       29.95F
MARION         PTCLDY    37  34  89 E6        29.94F
LANCASTER      CLOUDY    43  38  82 SE7       29.95F
ZANESVILLE     CLOUDY    41  36  82 SE7       29.96F
NEW PHILLY     NOT AVBL
$$




USA.gov is the U.S. government's official web portal to all federal, state and local government web resources and services.